Preview of NWS' New Version of Forecast
This preview is not operational and should not be used for support decisions.

Regional Weather Roundup (RWR)

Issued by National Weather Service (NWS)

                            
000
ASUS45 KCYS 202010
RWRWY 

WYOMING REGIONAL WEATHER ROUNDUP
NATIONAL WEATHER SERVICE CHEYENNE WY
200 PM MDT TUE AUG 20 2019

NOTE:  "FAIR" INDICATES FEW OR NO CLOUDS BELOW 12,000 FEET
WITH NO SIGNIFICANT WEATHER AND/OR OBSTRUCTIONS TO VISIBILITY.

WYZ001-202100-
YELLOWSTONE NATIONAL PARK
  
CITY           SKY/WX    TMP DP  RH WIND       PRES   REMARKS
LK YELLOWSTONE   N/A     73  29  19 VRB3      30.37F                  
W YELLOWSTONE  NOT AVBL                                               

$$
WYZ002>013-054>058-071-098>099-202100-
NORTHERN WYOMING
  
CITY           SKY/WX    TMP DP  RH WIND       PRES   REMARKS
JACKSON        FAIR      84  33  16 SW8       30.24F                  
CODY           FAIR      79  48  33 NE9       30.18F                  
GREYBULL       FAIR      88  42  20 NE3       30.07F                  
WORLAND        FAIR      90  47  22 NE6       30.09F                  
SHERIDAN       FAIR      86  49  27 E7        30.12S                  
BUFFALO        FAIR      83  50  31 SE9       30.19S                  
GILLETTE       FAIR      88  50  27 E13       30.14S                  
HULETT         FAIR      77  54  44 E15G24    30.21                   
NEWCASTLE      FAIR      90  37  15 SE10G25   30.15                   

$$
WYZ014>020-022>026-101>103-202100-
CENTRAL WYOMING
  
CITY           SKY/WX    TMP DP  RH WIND       PRES   REMARKS
BIG PINEY      FAIR      83  23  11 VRB6G16   30.29F                  
PINEDALE       FAIR      82  21  10 SE6       30.31                   
DUBOIS         FAIR      79  25  13 E9        30.29                   
LANDER         FAIR      87  36  16 N7        30.17F                  
RIVERTON       FAIR      88  40  18 E8        30.17F                  
CASPER         FAIR      89  42  19 VRB3      30.17F                  
DOUGLAS        FAIR      91  46  21 MISG      30.15F                  

$$
WYZ021-027>030-104>119-202100-
SOUTHERN WYOMING
  
CITY           SKY/WX    TMP DP  RH WIND       PRES   REMARKS
EVANSTON       FAIR      84  22  10 W16G22    30.28F                  
KEMMERER       FAIR      82  18   9 S8G17     30.30                   
ROCK SPRINGS   FAIR      87  24  10 NE7       30.25F                  
DIXON          FAIR      86  22   9 SE13      30.28F                  
RAWLINS        FAIR      88  24  10 SW10G24   30.27F                  
SARATOGA       FAIR      84  27  12 SW5       30.30F                  
LARAMIE        FAIR      88  20   8 W12G18    30.30F                  
CHEYENNE       FAIR      88  45  22 NE14G26   30.22S                  
TORRINGTON     FAIR      92  66  42 SE14G30   30.09S HX  94           
PINE BLUFFS    FAIR      88  50  27 NE15G21   30.16F                  

$$